sat.trackr.live / text

‹ back to catalog

STARLINK-36687

NORAD 67711 · 2026-025U

PAYLOAD ACTIVE UNKNOWN

§ Identity

Operator
Country
US
Launch date
2026-02-07
Launch site
AFWTR
Launch vehicle
Mass (kg)
RCS (m²)

Purposes: comms

External: N2YO · Heavens-Above · Gunter

§ Orbital elements

Epoch: 2026-05-24T21:13:08.831136Z

Period
93.91 min
Inclination
97.2842°
Eccentricity
0.0000647
Mean motion
15.33451522 rev/d
Perigee alt
465.1 km
Apogee alt
466.0 km
Semi-major
6,843.7 km
B*
5.2480e-4
RAAN
256.5662°
Arg perigee
107.3844°
Mean anomaly
252.7470°
Rev number
1,770

§ Raw data

STARLINK-366871 67711U 26025U   26144.88412999  .00016909  00000+0  52480-3 0  99902 67711  97.2842 256.5662 0000647 107.3844 252.7470 15.33451522 17705

JSON: /api/v1/satellites/67711 · /tle

For live sub-satellite position, see the globe view (requires WebGL).

§ Visibility from observer

Set your observer location to see the next 7 days of passes ≥ 10°. The values pass through the URL so the page stays shareable.

No JS? Fill the form by hand. The geolocation button needs JavaScript.